Location: Peebles
(55.6412°N, 3.1714°W)
Time: 20:25:58
(UTC+00:00)

COSMOS 2487 - Visible Passes

Search period start: 21 January 2022 00:00
Search period end: 31 January 2022 00:00
Orbit: 416 x 421 km, 74.7° (Epoch: 21 January)

Date Brightness Start Highest point End Pass type
(mag) Time Alt. Az. Time Alt. Az. Time Alt. Az.
24 Jan 4.5 18:39:38 10° N 18:40:26 14° N 18:40:26 14° N visible
25 Jan 4.3 17:54:32 10° NNE 17:55:53 13° NE 17:55:53 13° NE visible
25 Jan 4.7 19:28:02 10° NNW 19:28:55 17° NNW 19:28:55 17° NNW visible
26 Jan 3.5 18:42:21 10° NNW 18:44:27 29° NNE 18:44:27 29° NNE visible
26 Jan 5.6 20:17:13 10° NW 20:17:29 11° NW 20:17:29 11° NW visible
27 Jan 3.7 17:56:54 10° N 17:59:27 20° NE 18:00:07 19° ENE visible
27 Jan 3.9 19:31:01 10° NW 19:33:10 33° WNW 19:33:10 33° WNW visible
28 Jan 2.1 18:45:07 10° NNW 18:48:26 71° ENE 18:49:02 54° SE visible
28 Jan 5.6 20:21:02 10° WNW 20:22:07 12° W 20:22:07 12° W visible
29 Jan 3.0 17:59:26 10° NNW 18:02:28 33° NE 18:05:13 12° ESE visible
29 Jan 4.5 19:34:07 10° NW 19:36:55 26° WSW 19:38:19 19° SW visible
30 Jan 2.9 18:47:55 10° NNW 18:51:12 58° WSW 18:54:25 10° SSE visible
